Regional Weather Roundup
Issued by NWS

Home | Current Version | Previous Version | Text Only | Print | Product List | Glossary Off
Versions: 1 2 3 4 5 6 7 8 9 10 11 12 13 14 15 16 17 18 19 20 21 22 23 24 25 26 27 28 29 30 31 32 33 34 35 36 37 38 39 40 41 42 43 44 45 46 47 48 49

000
ASUS45 KBOU 260807
RWRCO

WEATHER ROUNDUP FOR COLORADO
NATIONAL WEATHER SERVICE DENVER/BOULDER CO
100 AM MST MON JAN 26 2015

NOTE: "FAIR" INDICATES FEW OR NO CLOUDS BELOW 12000 FEET WITH NO
SIGNIFICANT WEATHER AND/OR OBSTRUCTIONS TO VISIBILITY.

COZ001>005-013-030-031-260900-
...NORTHWEST COLORADO...

CITY           SKY/WX    TMP DP  RH WIND       PRES   REMARKS
CRAIG          PTCLDY    17  14  88 W3        30.41F
HAYDEN         PTCLDY    27  19  74 E14       30.41S WCI  15
MEEKER         CLEAR     17  14  88 CALM      30.39F
MOUNT WERNER   NOT AVBL
STEAMBOAT SPGS PTCLDY    22  20  92 CALM      30.43S
WALDEN         PTCLDY    23  18  80 CALM      30.42R
$$

COZ006>008-011-260900-
...WEST CENTRAL VALLEYS...

CITY           SKY/WX    TMP DP  RH WIND       PRES   REMARKS
GRAND JUNCTION PTCLDY    26  22  84 N3        30.37R
MONTROSE       PTCLDY    25  20  81 S8        30.39S WCI  16
EAGLE          CLEAR     21  21 100 E5        30.48S WCI  15
RIFLE          CLEAR     27  22  81 SE7       30.40F WCI  19
DELTA          PTCLDY    29  22  76 W5        30.38S WCI  23
NUCLA          PTCLDY    32  21  64 CALM      30.39R
$$

COZ017>023-064>068-260900-
...SOUTHWEST COLORADO...

CITY           SKY/WX    TMP DP  RH WIND       PRES   REMARKS
DURANGO        PTCLDY    26  21  81 NE5       30.37R WCI  20
CORTEZ         CLEAR     24  20  84 NE8       30.36R WCI  15
PAGOSA SPRINGS PTCLDY    20  19  93 CALM      30.40R
TELLURIDE      CLEAR     36  16  43 CALM      30.40S
WOLF CREEK PAS NOT AVBL
$$

COZ009-010-012-014-032>034-037-058>063-260900-
...CENTRAL COLORADO...

CITY           SKY/WX    TMP DP  RH WIND       PRES   REMARKS
ASPEN          CLEAR     23  16  74 SW6       30.44S WCI  16
BUENA VISTA    CLEAR     39  21  48 NW14      30.36F
COPPER MTN     PTCLDY    32  18  55 SW7       30.51S WCI  26
BERTHOUD PASS  FAIR      19  14  79 N17G28    30.48S WCI   4
COTTONWOOD PAS CLEAR     43  10  26 CALM      30.43S
GUNNISON       PTCLDY     3   3 100 CALM      30.48F
KREMMLING      PTCLDY    18  14  86 CALM      30.48F
LEADVILLE      CLEAR     20  14  77 NE8       30.46R WCI  10
MONARCH PASS   PTCLDY    32  12  43 E18       30.58F WCI  20
SALIDA         CLEAR     31  21  64 CALM      30.45S
SUNLIGHT       CLEAR     32  21  64 CALM        N/A
WILKERSON PASS CLEAR     34  12  40 N9G23     30.47R WCI  26
$$

COZ069>075-260900-
...SAN LUIS VALLEY/SANGRE DE CRISTO MOUNTAINS...

CITY           SKY/WX    TMP DP  RH WIND       PRES   REMARKS
ALAMOSA        PTCLDY    11   7  84 SE5       30.38S WCI   3
LA VETA PASS   NOT AVBL
SAGUACHE       PTCLDY    34  23  64 N15       30.38S WCI  24
$$

COZ035-036-038>040-260900-
...NORTHERN COLORADO FRONT RANGE...

CITY           SKY/WX    TMP DP  RH WIND       PRES   REMARKS
DENVER INTL AP PTCLDY    40  25  55 SW8       30.20F
DMNS CITY PARK   N/A     37  24  59 S5        30.20F
AURORA         PTCLDY    42  24  48 SW6       30.22F
FRONT RANGE AP NOT AVBL
ERIE MUNI ARPT PTCLDY    31  26  81 CALM      30.20S
BOULDER MUN AP PTCLDY    41  23  48 CALM      30.20S
CENTENNIAL     CLEAR     34  24  67 CALM      30.22F
BROOMFIELD     PTCLDY    50  23  34 NW9       30.21F
FORT COLLINS   PTCLDY    36  27  69 S3        30.20F
LONGMONT       PTCLDY    35  26  68 W3        30.21F
$$

COZ041-046-047-076>085-087-088-260900-
...PIKES PEAK/PALMER DIVIDE AND SOUTHERN FOOTHILLS...

CITY           SKY/WX    TMP DP  RH WIND       PRES   REMARKS
COLO. SPRINGS  PTCLDY    36  24  62 N3        30.26S
A. F. ACADEMY  CLEAR     30  22  71 NE8       30.26R WCI  23
ELLICOTT       CLEAR    N/A N/A N/A NW5       30.24R
FALCON         CLEAR     37  22  56 W9        30.28R
FORT CARSON    CLEAR     37  23  56 NW6       30.23S
LIMON          PTCLDY    33  26  75 VRB5      30.20S WCI  29
MONUMENT HILL  CLEAR     36  23  60 W9        30.26R
TRINIDAD       CLEAR     37  24  59 W16       30.26S
$$

COZ042>045-048>051-090-091-260900-
...NORTHEAST COLORADO...

CITY           SKY/WX    TMP DP  RH WIND       PRES   REMARKS
GREELEY ARPT   MOCLDY    28  21  74 NW5       30.18F WCI  23
AKRON          PTCLDY    36  28  73 W13       30.15F
BURLINGTON     PTCLDY    37  29  72 W12       30.14S
WRAY           CLEAR     39  31  75 W10       30.10F
STERLING       PTCLDY    43  32  65 NW14      30.13S
HOLYOKE        CLEAR     43  32  65 W14       30.09S
FORT MORGAN    PTCLDY    30  27  86 W7        30.18S WCI  23
$$

COZ086-089-092>099-260900-
...SOUTHEAST COLORADO...

CITY           SKY/WX    TMP DP  RH WIND       PRES   REMARKS
PUEBLO         CLEAR     31  27  85 W6        30.22F WCI  25
LA JUNTA       CLEAR     32  27  81 W6        30.21S WCI  26
LAMAR          PTCLDY    37  30  75 SW10      30.17S
SPRINGFIELD      N/A     33  27  78 W6        30.19F WCI  28
$$



USA.gov is the U.S. government's official web portal to all federal, state and local government web resources and services.